FW3145 Weather Reports


Display with metric or nautical units.
time (UTC)temp
F
wind
direction
speed
MPH
gust
MPH
rain 1hr
in
rain 24hr
in
rain mn
in
humidity
%
barometer
mb
20260502163017 68 60 0.0 0.0 0.00 0.00 0.00 35 1018.7
20260502161516 68 29 0.0 0.0 0.00 0.00 0.00 35 1018.6
20260502151513 70 63 0.0 0.0 0.00 0.00 0.00 34 1018.8
20260502123056 72 320 0.0 0.0 0.00 0.00 0.00 35 1020.2
20260502121555 71 74 0.0 0.0 0.00 0.00 0.00 33 1020.3
20260502114553 71 55 0.0 0.0 0.00 0.00 0.00 34 1020.3
20260502113049 70 48 0.0 0.0 0.00 0.00 0.00 34 1020.4
20260502111550 70 34 0.0 0.0 0.00 0.00 0.00 37 1020.5
20260502110043 69 51 0.0 0.0 0.00 0.00 0.00 35 1020.7
20260502104542 68 63 0.0 0.0 0.00 0.00 0.00 35 1020.8
20260502103044 68 23 0.0 0.0 0.00 0.00 0.00 36 1020.9
20260502101545 68 59 0.0 0.0 0.00 0.00 0.00 35 1021.0
20260502091530 68 52 0.0 0.0 0.00 0.00 0.00 35 1021.2
20260502071507 63 355 0.0 0.0 0.00 0.00 0.00 45 1021.5
20260502070004 61 355 0.0 0.0 0.00 0.00 0.00 49 1021.5
20260502064500 60 196 0.0 0.0 0.00 0.00 0.00 53 1021.6
20260502063058 60 109 0.0 0.0 0.00 0.00 0.00 51 1021.6
20260502061554 57 199 0.0 0.0 0.00 0.00 0.00 55 1021.6
20260502060050 55 227 0.0 0.0 0.00 0.00 0.00 60 1021.5
20260502054549 53 349 0.0 0.0 0.00 0.00 0.00 64 1021.6
20260502053056 53 74 0.0 0.0 0.00 0.00 0.00 63 1021.4
20260502051559 52 185 0.0 0.0 0.00 0.00 0.00 63 1021.4
20260502050049 54 96 0.0 0.0 0.00 0.00 0.00 61 1021.2
20260502044544 52 78 0.0 0.0 0.00 0.00 0.00 64 1021.3
20260502043040 52 128 0.0 0.0 0.00 0.00 0.00 63 1021.2
20260502041600 53 125 0.0 0.0 0.00 0.00 0.00 62 1021.2
20260502040042 52 74 0.0 0.0 0.00 0.00 0.00 61 1021.2
20260502034536 53 255 0.0 0.0 0.00 0.00 0.00 60 1020.9
20260502033049 54 332 0.0 0.0 0.00 0.00 0.00 57 1020.9
20260502031535 53 115 0.0 0.0 0.00 0.00 0.00 58 1021.0
20260502030034 53 223 0.0 0.0 0.00 0.00 0.00 58 1020.8
20260502024535 52 321 0.0 0.0 0.00 0.00 0.00 59 1020.8
20260502023032 53 276 0.0 0.0 0.00 0.00 0.00 57 1020.8
20260502021528 54 146 0.0 0.0 0.00 0.00 0.00 55 1020.8
20260502020027 56 17 0.0 0.0 0.00 0.00 0.00 53 1020.7
20260502014529 56 325 0.0 0.0 0.00 0.00 0.00 53 1020.9
20260502013025 56 43 0.0 0.0 0.00 0.00 0.00 51 1021.0
20260502011525 56 355 0.0 0.0 0.00 0.00 0.00 50 1020.9
20260502010025 56 41 0.0 0.0 0.00 0.00 0.00 49 1021.0
20260502004523 56 5 0.0 0.0 0.00 0.00 0.00 49 1021.0
20260502003023 57 9 0.0 0.0 0.00 0.00 0.00 48 1021.1
20260502001522 57 39 0.0 0.0 0.00 0.00 0.00 47 1021.1
20260502000019 57 36 0.0 0.0 0.00 0.00 0.00 45 1021.3
20260501234519 57 32 0.0 0.0 0.00 0.00 0.00 43 1021.3
20260501233018 57 346 0.0 0.0 0.00 0.00 0.00 41 1021.1
20260501231516 57 66 0.0 0.0 0.00 0.00 0.00 39 1021.1
20260501230015 58 48 0.0 0.0 0.00 0.00 0.00 36 1021.2
20260501224514 58 47 0.0 0.0 0.00 0.00 0.00 35 1021.0
20260501223012 57 13 0.0 0.0 0.00 0.00 0.00 35 1020.9
20260501221508 55 9 0.0 0.0 0.00 0.00 0.00 36 1020.9
20260501220005 55 97 0.0 0.0 0.00 0.00 0.00 35 1020.9
20260501214504 56 330 0.0 0.0 0.00 0.00 0.00 35 1020.8
20260501213004 54 88 0.0 0.0 0.00 0.00 0.00 36 1021.0
20260501211504 52 327 0.0 0.0 0.00 0.00 0.00 41 1021.1
20260501210003 52 65 0.0 0.0 0.00 0.00 0.00 42 1021.1
20260501204503 52 355 0.0 0.0 0.00 0.00 0.00 44 1021.2
20260501203002 50 42 0.0 0.0 0.00 0.00 0.00 43 1021.2
20260501201502 51 318 0.0 0.0 0.00 0.00 0.00 40 1021.2
20260501200059 50 18 0.0 0.0 0.00 0.00 0.00 46 1021.1
20260501194600 49 360 0.0 0.0 0.00 0.00 0.00 44 1021.0
20260501193056 49 29 0.0 0.0 0.00 0.00 0.00 47 1020.7
20260501191559 48 290 0.0 0.0 0.00 0.00 0.00 51 1020.4
20260501190051 51 283 0.0 0.0 0.00 0.00 0.00 47 1020.2
20260501184550 55 283 0.0 0.0 0.00 0.00 0.00 35 1019.9
20260501183055 56 36 0.0 0.0 0.00 0.00 0.00 32 1019.7
20260501181552 57 65 0.0 0.0 0.00 0.00 0.00 33 1019.6